Location: Overspoor
(51.4747°N, 5.6641°E)
Time: 07:20:17
(UTC+02:00)

N. Korean satellite - Pass Details

Date: 18 January 2022
Orbit: 438 x 477 km, 97.3° (Epoch: 23 May)

Event Time Altitude Azimuth Distance (km) Brightness Sun altitude
Rises 07:34:22 0° 356° (N) 2,608 10.0 -9.0°
Reaches altitude 10° 07:37:33 10° 326° (NW) 1,731 8.9 -8.5°
Maximum altitude 07:39:04 12° 302° (WNW) 1,596 8.5 -8.3°
Drops below altitude 10° 07:40:36 10° 278° (W) 1,735 8.7 -8.1°
Enters shadow 07:41:21 - 268° (W) 1,889 9.0 -8.0°
